Location: Lachepaillet
(43.4918°N, 1.4874°W)
Time: 02:18:22
(UTC+00:00)

Cosmos 1898 Rocket - Pass Details

Date: 15 May 2026
Orbit: 750 x 778 km, 74.0° (Epoch: 8 June)

Event Time Altitude Azimuth Distance (km) Brightness Sun altitude
Rises 22:56:49 0° 341° (NNW) 3,216 8.1 -25.7°
Reaches altitude 10° 22:59:12 10° 344° (NNW) 2,290 7.0 -25.8°
Maximum altitude 23:04:23 69° 68° (ENE) 813 3.5 -26.1°
Enters shadow 23:04:35 68° 84° (E) 817 3.5 -26.1°
